COSMOS 1275 DEB, 42215

Orbit data source: Space-Track

COSMOS 1275 DEB, 42215 is space debris in LEO originally from a launch on Thu, 04 Jun 1981 UTC launched from the Plesetsk Missile And Space Complex (PKMTR). Debris objects in space refer to the collection of defunct objects orbiting the Earth. Examples of debris include non-operational satellites, rocket bodies, and fragments generated from explosions, collisions, or faulty payload assembly.

Loading next visibility...
Identifier
42215, 1981-053UF
Orbit
LEO
Country
Flag of CISCIS
Related business
Manufacturer
Unknown
Mission
Spacecraft
Bus & Motor
Unknown
Mass
Unknown
Launch date (UTC)
1981-06-04 (45 years ago)
Launch vehicle
Unknown
Launch site
Plesetsk Missile And Space Complex (PKMTR)
Object type
Payload
Rocket body
Debris
Shape & HBR
Unknown shape, 0.1 m
Radar Cross Section
Small (<0.1 m²)

Expand to show TLE details & history
Last TLE update: 2 months ago

TLE from 2 months ago
0 COSMOS 1275 DEB
1 42215U 81053UF  26079.61065024  .00000644  00000-0  59070-3 0  9997
2 42215  82.8899  40.5442 0105109 313.4593  45.7857 13.79209040618458
Epoch: 2026-03-20T14:39Z
TLE epoch observation values (Epoch: 2026-03-20T14:39:20.180Z)
Latitude
-0.00003°
Longitude
2.56687°
Altitude
916.174 km
Speed
7.421 km/s
True Right ascension
02h 42m 10s
True Declination
0° 00' 00"
Sunlit
Object was in daylight at epoch
Visualization orbit readout
Latitude
Unknown
Longitude
Unknown
Altitude
Unknown
Speed
Unknown
Apparent Right ascension
Unknown
Apparent Declination
Unknown
Sunlit
N/A
Visualization observer readout
Local Sidereal Time
22:30:05
Azimuth
Unknown
Elevation
Unknown
Doppler factor
Unknown
Orbital elements
Apogee altitude
1,041.009 km
Perigee altitude
886.667 km
Semi-major axis
7,341.975 km
Eccentricity
0.01051
Inclination
82.8899°
RAAN
40.5442°
Arg. of periapsis
313.4593°
True anomaly
46.65693°
Mean anomaly
45.7857°
Eccentric anomaly
46.22052°
Mean motion
3.45004 °/min
Orbital period
104.35 mins
BSTAR
0.0005907
Loading maneuver chart data...
Computing Atmospheric mass density...

Documentation

Showing up to 5 results
|